[[{"header":{"parameterUnit":"m.s-1","parameterCategory":1,"la1":30.2991,"la2":30.254,"lo1":-89.0895,"lo2":-89.0444,"dy":0.0017,"dx":0.0017,"nx":28,"ny":28,"refTime":"2024-05-30T09:00:00:Z","depth":0,"parameterNumber":2,"parameterNumberName":"U-component_of_WINDS"},"data":[0,0,0,0,0,0,0,0,0,0,0,0,0,0,0,0,0,0,0,0,0,0,0,0,0,0,0,0,0,0,0,0,0,0,0,0,0,0,0,0,0,0,0,0,0,0,0,0,0,0,0,0,0,0,0,0,0,0,-4.6331,-4.6332,0,-4.6442,-4.6443,-4.6445,-4.64,-4.6398,-4.6395,-4.6393,-4.6503,-4.6508,-4.6514,0,0,0,0,0,0,0,0,0,0,0,0,0,-4.6077,-4.6082,-4.6331,-4.6332,-4.6333,-4.6442,-4.6443,-4.6445,-4.6401,-4.6398,-4.6395,-4.6392,-4.6501,-4.6508,-4.6514,0,0,0,0,0,0,0,0,0,0,0,0,0,-4.6187,-4.6083,-4.633,-4.6325,-4.6325,-4.6442,-4.6444,-4.6445,-4.6401,-4.6398,-4.6394,-4.639,-4.6499,-4.6507,-4.6515,-4.6643,0,0,-4.654,-4.6543,0,0,0,0,0,0,0,0,-4.6181,-4.6197,-4.6324,-4.6325,-4.6326,-4.6403,-4.6394,-4.6511,-4.6402,-4.6372,-4.6393,-4.6388,-4.6473,-4.6483,-4.6512,-4.6648,-4.6653,-4.654,-4.6545,-4.6549,-4.6551,0,0,0,0,0,0,0,-4.6174,-4.6192,-4.6375,-4.6326,-4.6327,-4.6316,-4.6327,-4.6416,-4.6443,-4.6375,-4.6372,-4.6386,-4.6473,-4.6505,-4.6514,-4.6654,-4.654,-4.6547,-4.6552,-4.6555,-4.69,-4.6904,0,0,0,0,0,0,-4.6166,-4.6186,-4.6371,-4.6378,-4.6243,-4.6323,-4.6336,-4.6382,-4.6442,-4.6447,-4.6389,-4.6383,-4.6493,-4.6505,-4.6518,-4.667,-4.6549,-4.6556,-4.6561,-4.6895,-4.6901,-4.6905,0,0,0,0,0,0,-4.6161,-4.6183,-4.6367,-4.6281,-4.6304,-4.6332,-4.6384,-4.6387,-4.6418,-4.6453,-4.6457,-4.6417,-4.649,-4.6507,-4.6612,-4.6673,-4.656,-4.6567,-4.689,-4.6897,-4.6903,-4.6976,0,0,0,0,0,0,-4.6154,-4.6182,-4.6231,-4.6283,-4.6308,-4.6459,-4.6388,-4.6392,-4.6433,-4.6427,-4.648,-4.6485,-4.6488,-4.66,-4.662,-4.6682,-4.6573,-4.6885,-4.6893,-4.6901,-4.6968,-4.6984,-4.6997,0,0,0,0,0,-4.6145,-4.6246,-4.6233,-4.6256,-4.6371,-4.6463,-4.6478,-4.648,-4.6438,-4.6487,-4.651,-4.6483,-4.6665,-4.6612,-4.6633,-4.6699,-4.6881,-4.6891,-4.69,-4.6961,-4.6981,-4.6997,0,0,0,0,0,0,-4.6198,-4.6253,-4.6239,-4.636,-4.6408,-4.6455,-4.6517,-4.6501,-4.656,-4.6552,-4.6552,-4.6564,-4.6673,-4.6697,-4.6637,-4.6825,-4.6766,-4.6781,-4.6805,-4.6824,-4.6838,-4.6828,-4.658,0,0,0,0,0,-4.6225,-4.6297,-4.634,-4.6442,-4.6467,-4.6489,-4.6529,-4.6527,-4.6576,-4.6595,-4.6625,-4.6672,-4.6739,-4.6783,-4.6848,-4.6973,-4.6982,-4.7029,-4.7043,-4.7055,-4.7067,-4.7133,-4.7153,-4.6937,-4.6937,-4.6937,0,0,-4.6279,-4.6318,-4.6362,-4.6454,-4.6491,-4.6563,-4.6505,-4.6585,-4.6639,-4.6607,-4.6707,-4.6732,-4.6784,-4.69,-4.6952,-4.6923,-4.7129,-4.7068,-4.7077,-4.7082,-4.7145,-4.7166,-4.7184,-4.6944,-4.6942,-4.6941,0,0,-4.6414,-4.6452,-4.6541,-4.6579,-4.6636,-4.665,-4.6672,-4.6723,-4.6738,-4.684,-4.6817,-4.6881,-4.6998,-4.7036,-4.707,-4.7223,-4.7201,-4.7245,-4.732,-4.7385,-4.7402,-4.7417,-4.7469,-4.7488,-4.7257,-4.7257,-4.7257,0,-4.6473,-4.6583,-4.6588,-4.667,-4.671,-4.6688,-4.6777,-4.6814,-4.6888,-4.6916,-4.6884,-4.703,-4.7064,-4.7187,-4.7225,-4.7255,-4.7278,-4.7236,-4.74,-4.7415,-4.7429,-4.7478,-4.7498,-4.7261,-4.7261,-4.726,-4.726,0,-4.6653,-4.673,-4.6795,-4.6868,-4.6917,-4.7002,-4.7019,-4.7067,-4.7063,-4.708,-4.7184,-4.7225,-4.7296,-4.7326,-4.7322,-4.7449,-4.7429,-4.7399,-4.7338,-4.7454,-4.75,-4.7519,-4.7268,-4.7266,-4.7265,-4.7264,0,0,-4.682,-4.6898,-4.6921,-4.6954,-4.7016,-4.7075,-4.716,-4.7231,-4.7272,-4.7325,-4.7394,-4.7495,-4.7468,-4.7507,-4.7507,-4.7565,-4.7681,-4.7527,-4.7528,-4.7552,-4.7821,-4.7841,-4.7863,-4.7669,-4.7672,-4.7675,-4.7816,0,-4.6958,-4.7106,-4.7114,-4.7249,-4.7319,-4.73,-4.7373,-4.7419,-4.7439,-4.75,-4.7522,-4.7592,-4.7552,-4.7575,-4.7632,-4.7655,-4.7734,-4.7645,-4.773,-4.7733,-4.7714,-4.7888,-4.7909,-4.8039,-4.7834,-4.7838,-4.784,0,-4.7137,-4.7196,-4.7338,-4.7391,-4.7421,-4.7487,-4.7553,-4.7613,-4.7665,-4.7675,-4.7721,-4.7713,-4.7799,-4.774,-4.7857,-4.7796,-4.7832,-4.7849,-4.7854,-4.7859,-4.779,-4.7893,-4.8081,-4.8099,-4.7869,-4.7867,-4.7865,0,-4.7241,-4.7357,-4.7457,-4.7486,-4.7551,-4.7598,-4.7627,-4.7675,-4.7717,-4.7776,-4.7803,-4.7871,-4.7907,-4.7959,-4.797,-4.7926,-4.8086,-4.8028,-4.8095,-4.8095,-4.8125,-4.8123,-4.8318,-4.8156,-4.8156,-4.8155,-4.8155,0,-4.7391,-4.7477,-4.7504,-4.7565,-4.7662,-4.7671,-4.7766,-4.7792,-4.7836,-4.79,-4.7889,-4.795,-4.7963,-4.8026,-4.8036,-4.813,-4.8147,-4.8156,-4.8157,-4.8155,-4.8153,-4.8175,-4.8165,-4.816,-4.8159,-4.8158,-4.8157,0,-4.7521,-4.7543,-4.765,-4.7704,-4.7719,-4.7788,-4.7833,-4.7891,-4.7911,-4.7993,-4.8013,-4.8043,-4.8117,-4.8135,-4.8223,-4.823,-4.834,-4.8334,-4.8323,-4.8321,-4.8386,-4.8378,-4.8598,-4.8627,-4.845,-4.8451,-4.8453,0,-4.7613,-4.7679,-4.7741,-4.7784,-4.7816,-4.7886,-4.793,-4.7943,-4.7988,-4.8054,-4.8104,-4.8177,-4.8236,-4.8356,-4.8384,-4.8452,-4.8445,-4.8518,-4.8455,-4.845,-4.8442,-4.8436,-4.8442,-4.8528,-4.853,-4.8532,-4.8533,0,-4.7773,-4.7781,-4.7845,-4.7915,-4.7968,-4.8022,-4.8074,-4.811,-4.813,-4.8182,-4.8259,-4.8305,-4.8396,-4.8468,-4.8537,-4.8566,-4.8552,-4.8554,-4.8572,-4.8568,-4.8557,-4.8561,-4.8351,-4.8547,-4.8546,-4.8545,-4.8544,-4.8543,-4.7884,-4.7942,-4.7995,-4.8067,-4.8108,-4.8158,-4.8214,-4.8243,-4.8307,-4.8382,-4.8387,-4.8469,-4.852,-4.8611,-4.8645,-4.8709,-4.8686,-4.8714,-4.872,-4.8725,-4.8729,-4.8551,-4.8722,-4.8721,-4.8721,-4.8721,-4.8721,0,-4.8041,-4.8074,-4.8141,-4.8215,-4.8272,-4.8258,-4.8315,-4.8363,-4.8436,-4.8486,-4.8545,-4.8633,-4.8704,-4.874,-4.881,-4.8855,-4.885,-4.8872,-4.8867,-4.8873,-4.8747,-4.8723,-4.8875,-4.8875,-4.8875,-4.8874,-4.8874,-4.8874,-4.8128,-4.8225,-4.824,-4.8357,-4.839,-4.8471,-4.8505,-4.855,-4.859,-4.8689,-4.8748,-4.8773,-4.8817,-4.889,-4.8954,-4.8963,-4.8988,-4.9012,-4.9018,-4.8898,-4.8882,-4.8867,-4.8844,-4.9019,-4.9019,-4.9138,-4.9139,-4.914]},{"header":{"parameterUnit":"m.s-1","parameterCategory":1,"la1":30.2991,"la2":30.254,"lo1":-89.0895,"lo2":-89.0444,"dy":0.0017,"dx":0.0017,"nx":28,"ny":28,"refTime":"2024-05-30T09:00:00:Z","depth":0,"parameterNumber":3,"parameterNumberName":"V-component_of_WINDS"},"data":[0,0,0,0,0,0,0,0,0,0,0,0,0,0,0,0,0,0,0,0,0,0,0,0,0,0,0,0,0,0,0,0,0,0,0,0,0,0,0,0,0,0,0,0,0,0,0,0,0,0,0,0,0,0,0,0,0,0,1.9231,1.9229,0,1.9046,1.9044,1.9042,1.886,1.8858,1.8856,1.8853,1.8657,1.8654,1.8651,0,0,0,0,0,0,0,0,0,0,0,0,0,1.9423,1.9421,1.9231,1.9229,1.9227,1.9046,1.9044,1.9041,1.8861,1.8858,1.8855,1.8852,1.8658,1.8654,1.8651,0,0,0,0,0,0,0,0,0,0,0,0,0,1.9299,1.942,1.9232,1.9115,1.9103,1.9047,1.9044,1.9041,1.8861,1.8858,1.8854,1.8851,1.8659,1.8655,1.865,1.8692,0,0,1.8636,1.8634,0,0,0,0,0,0,0,0,1.9306,1.9292,1.9135,1.9123,1.9109,1.8973,1.9039,1.8924,1.8862,1.8953,1.8853,1.8849,1.8764,1.8751,1.8724,1.8683,1.8675,1.8636,1.8633,1.8631,1.863,0,0,0,0,0,0,0,1.9315,1.9299,1.9158,1.9132,1.9117,1.907,1.9049,1.9016,1.888,1.8945,1.8931,1.8912,1.8757,1.8729,1.8718,1.8672,1.8636,1.8632,1.8629,1.8627,1.8657,1.866,0,0,0,0,0,0,1.9343,1.9308,1.9164,1.9152,1.9201,1.907,1.9046,1.902,1.888,1.8856,1.8915,1.8904,1.8738,1.8723,1.871,1.875,1.8631,1.8627,1.8624,1.8653,1.8657,1.8661,0,0,0,0,0,0,1.9347,1.9331,1.9171,1.9226,1.9202,1.907,1.9043,1.9018,1.899,1.8858,1.8832,1.8912,1.8735,1.8716,1.8699,1.874,1.8625,1.862,1.8649,1.8654,1.8659,1.8831,0,0,0,0,0,0,1.9354,1.9334,1.935,1.9228,1.92,1.9165,1.9045,1.9017,1.8983,1.8967,1.8848,1.8825,1.873,1.8706,1.8694,1.8732,1.8617,1.8644,1.8651,1.8658,1.882,1.8841,1.8859,0,0,0,0,0,1.9361,1.9404,1.9352,1.9335,1.9218,1.9168,1.9151,1.9044,1.8988,1.9001,1.8917,1.8829,1.8739,1.8706,1.8691,1.8728,1.8641,1.8649,1.8657,1.8812,1.8837,1.8858,0,0,0,0,0,0,1.9531,1.9386,1.9326,1.9331,1.9264,1.9137,1.9151,1.9074,1.9019,1.9006,1.8873,1.8847,1.8845,1.8784,1.8751,1.8762,1.8678,1.8683,1.8801,1.8823,1.8842,1.8855,1.8613,0,0,0,0,0,1.9571,1.9544,1.9417,1.9434,1.9404,1.9285,1.9258,1.9182,1.9105,1.9075,1.8989,1.8916,1.8871,1.8844,1.8796,1.8812,1.8782,1.883,1.8849,1.8866,1.8871,1.8874,1.8893,1.8687,1.8687,1.8687,0,0,1.9649,1.9566,1.9557,1.9466,1.9405,1.9379,1.9261,1.9238,1.9217,1.907,1.9048,1.8984,1.8894,1.8894,1.8889,1.8843,1.8922,1.8876,1.889,1.8885,1.8884,1.8904,1.8922,1.8693,1.8692,1.8691,0,0,1.9778,1.9714,1.9721,1.9663,1.9572,1.9493,1.9495,1.9381,1.9333,1.931,1.92,1.9172,1.9098,1.9038,1.8998,1.9109,1.9025,1.9097,1.9195,1.92,1.9216,1.923,1.9268,1.9284,1.9103,1.9103,1.9104,0,1.9886,1.9845,1.9733,1.9718,1.9681,1.9551,1.9556,1.9504,1.9402,1.9379,1.933,1.9235,1.9165,1.9149,1.9177,1.9149,1.9146,1.9108,1.9224,1.9236,1.9247,1.9282,1.9297,1.9113,1.9112,1.9111,1.911,0,1.9981,1.9955,1.9971,1.9878,1.9843,1.9838,1.9725,1.9703,1.9631,1.9557,1.9534,1.9447,1.9379,1.937,1.9297,1.9343,1.9318,1.9249,1.9161,1.9278,1.9308,1.9321,1.9126,1.9122,1.912,1.9117,0,0,2.0209,2.0058,2.0066,2.0022,1.9915,1.9891,1.988,1.9816,1.9799,1.9734,1.972,1.9662,1.9598,1.9553,1.9473,1.9479,1.9571,1.9408,1.9404,1.944,1.9615,1.9666,1.9684,1.9516,1.9518,1.952,1.9622,0,2.0318,2.0293,2.0194,2.0198,2.0171,2.0049,2.0039,1.9972,1.9903,1.9869,1.9791,1.9752,1.9671,1.9643,1.9643,1.956,1.9604,1.9551,1.95,1.9499,1.9524,1.9699,1.9753,1.9853,1.9633,1.9635,1.9636,0,2.0441,2.0388,2.039,2.0284,2.0269,2.0263,2.0196,2.0166,2.0087,2.0036,1.9989,1.9901,1.9881,1.9803,1.9773,1.974,1.9713,1.9669,1.967,1.9659,1.9573,1.9691,1.9883,1.9897,1.9654,1.9653,1.9651,0,2.0606,2.0534,2.0525,2.0492,2.0369,2.0368,2.0316,2.0233,2.0202,2.0144,2.0121,2.0062,2.0028,1.9983,1.9881,1.9833,1.9863,1.9775,1.9818,1.9821,1.9827,1.9827,2.0015,1.9815,1.9814,1.9814,1.9814,0,2.0737,2.0742,2.0598,2.0592,2.0595,2.0481,2.0486,2.0423,2.0351,2.033,2.0221,2.0203,2.0071,2.0037,1.9958,1.9945,1.9931,1.9888,1.9866,1.9896,1.9902,1.9875,1.9864,1.9818,1.9817,1.9816,1.9816,0,2.0919,2.0823,2.0805,2.0692,2.0664,2.0671,2.0572,2.0562,2.0488,2.0463,2.045,2.0334,2.0289,2.0184,2.0111,2.0057,2.0064,2.0026,2.0092,2.0078,2.0126,2.0122,2.0301,2.0318,2.011,2.0112,2.0114,0,2.1007,2.1009,2.0897,2.0877,2.0831,2.0799,2.0767,2.0656,2.0627,2.0538,2.0538,2.0486,2.0438,2.0372,2.0279,2.0223,2.0181,2.0248,2.0171,2.0202,2.018,2.018,2.0179,2.0264,2.0267,2.0269,2.0271,0,2.1174,2.1127,2.1087,2.1031,2.0997,2.0946,2.089,2.0879,2.0753,2.0726,2.0681,2.0644,2.0572,2.052,2.045,2.0394,2.0311,2.0297,2.0303,2.0332,2.037,2.0349,2.0135,2.0292,2.029,2.0288,2.0287,2.0286,2.131,2.1306,2.1228,2.1187,2.1134,2.1084,2.1069,2.0995,2.0956,2.089,2.0827,2.0788,2.0709,2.0607,2.0558,2.0524,2.0482,2.0492,2.0494,2.0497,2.0511,2.0379,2.0511,2.0511,2.051,2.0509,2.0509,0,2.147,2.1414,2.1378,2.1304,2.1272,2.1201,2.1135,2.1112,2.1081,2.1016,2.0972,2.092,2.0871,2.0776,2.0718,2.071,2.067,2.0698,2.0696,2.0684,2.0552,2.0552,2.0731,2.0731,2.0731,2.0731,2.0731,2.0731,2.1549,2.1539,2.1484,2.1446,2.1389,2.1353,2.1321,2.1275,2.1222,2.1171,2.113,2.107,2.0993,2.0929,2.088,2.0853,2.0836,2.0876,2.0837,2.0714,2.0693,2.0673,2.0672,2.0873,2.0874,2.0971,2.0972,2.0972]}]]